Location: Mount Cross
(36.6390°N, 79.4878°W)
Time: 01:45:28
(UTC+00:00)

SR - Pass Details

Date: 31 March 2023
Orbit: 580 x 867 km, 66.7° (Epoch: 08 June)

Event Time Altitude Azimuth Distance (km) Brightness Sun altitude
Rises 15:00:44 0° 334° (NNW) 2,831 ? 44.1°
Reaches altitude 10° 15:02:56 10° 336° (NNW) 1,947 ? 44.5°
Maximum altitude 15:07:17 74° 62° (ENE) 655 ? 45.2°
Drops below altitude 10° 15:11:56 10° 148° (SSE) 2,069 ? 45.9°
Sets 15:14:19 0° 150° (SSE) 3,025 ? 46.3°
